Startpagina
METAR-TAF:

METAR-TAF

Vliegvelden :

Aeropuerto Almirante Padilla

Riohacha, Colombia

breedte: 11-32N, lengte: 072-56W, hoogte: 4 m

Actueel weer

Dit bericht is 9 uur en het 19 minuten geleden gemaakt, om 23:00 UTC
Wind 8 kt uit het noordnoordoosten
Temperatuur 29°C
Vochtigheid 70%
Druk 1010 hPa
Zicht 10 km of meer
Weinig wolken op 1500 ft
Verspreide wolken op 20000 ft

METAR: SKRH 202300Z 03008KT 9999 FEW015 SCT200 29/23 A2983

Tijdstip: 03:19 (08:19 UTC)


TAF: ontbreekt

Waarnemingen en weersverwachtingen van meer dan 4000 vliegvelden (METAR en TAF).

De beschikbare stations zijn de gele en rode punten op de kaart.

Ga met uw muis naar het station om de naam te zien.

Klik dan om waarnemingen en weersverwachtingen te zien.

kaart wijzigen: klik op de groene knoppen met een zwart kruis om in te zoomen, op de groene knop met een streepje om uit te zoomen of op de groene pijlen voor aangrenzende kaarten.


METAR-TAF: